www.pogodaiklimat.ru

Погода и климат >> Архив погоды >> Россия >> Башкирия >> Зилаир


ПОГОДА в Зилаире

  • Прогноз погоды в Зилаире
  • Монитор погоды в Зилаире
  • Климат города

АРХИВ ПОГОДЫ в Зилаире

Время (UTC), дата Ветер
(напр.,м/с)
 
Видим.   Явления Облачность Т
(С)
Тd
(С)
f
(%)
Тe
(С)
Тes
(С)
Комфортность P
(гПа)
Po
(гПа)
Тmin
(С)
Tmax
(С)
R
(мм)
R24
(мм)
S
(см)
18 10.11 СЗ 2 10 км 10/0
[Ac As]
-5.1 -6.3 91 -9 -9 1031.6 965.8
21 10.11 С 2 4000 м дымка 10/10 600 м
[Sc]
-6.1 -6.9 94 -11 -11 1031.7 965.7
00 11.11 З 1 4000 м дымка 10/10 600 м
[Sc]
-6.8 -7.6 94 -9 -9 1031.8 965.6
03 11.11 штиль 0 4000 м дымка 10/10 600 м
[Sc]
-7.1 -8.1 93 -8 -8 1032.1 965.8 -7.2 1
06 11.11 СЗ 1 4000 м дымка 10/10 600 м
[Sc]
-6.2 -7.2 93 -9 -9 1031.7 965.6
09 11.11 З 1 4000 м дымка 10/0
[Ac As]
-4.9 -5.7 94 -7 -7 1030.9 965.2
12 11.11 В 1 10 км 9/9 600 м
[Sc]
-3.8 -4.7 93 -6 -6 1029.8 964.4
15 11.11 штиль 0 4000 м дымка 6/6 600 м
[Sc]
-4.2 -5.1 93 -5 -5 1029.7 964.2 -3.6
18 11.11 штиль 0 4000 м дымка 4/0
[Ac lent]
-6.2 -7.0 94 -7 -7 1029.6 963.7
21 11.11 штиль 0 4000 м дымка 8/0
[Ac und]
-5.2 -6.0 94 -6 -6 1028.1 962.5
00 12.11 С 1 4000 м дымка 9/0
[Ac und]
-5.1 -6.1 93 -8 -8 1027.3 961.8
03 12.11 штиль 0 4000 м дымка 9/0
[Ac und]
-4.9 -5.9 93 -6 -6 1026.5 961.1 -6.3 0
06 12.11 З 1 10 км 8/0
[Ac und]
-1.5 -3.2 88 -4 -3 1025.2 960.7
09 12.11 ЮЗ 1 20 км 9/0
[Ac und]
+2.1 -3.8 65 +1 +2 1023.4 959.8
12 12.11 Ю 1 20 км 9/0
[Ac und]
+2.1 -3.0 69 +1 +1 1022.6 959.0
15 12.11 штиль 0 10 км ясно -2.1 -3.6 89 -3 -3 1023.4 958.8 +2.5
18 12.11 СВ 1 4000 м дымка ясно -4.4 -5.0 96 -7 -7 1023.7 958.6
21 12.11 СВ 1 4000 м дымка ясно -6.6 -7.4 94 -9 -9 1024.6 958.9
00 13.11 СВ 1 4000 м дымка 4/0
[Ac trans]
-7.7 -8.5 94 -10 -10 1024.6 958.6
03 13.11 С 1 4000 м дымка 9/9 600 м
[Sc]
-6.5 -7.5 93 -9 -9 1024.5 958.8 -8.6
06 13.11 штиль 0 4000 м дымка 8/0
[Ac und]
-1.9 -2.6 95 -3 -3 1024.2 959.6
09 13.11 ЮЗ 1 10 км 8/0
[Ac und]
+2.2 -3.1 68 +1 +2 1023.2 959.6
12 13.11 ЮЗ 1 10 км 10/0
[Ac As]
+2.0 -2.7 71 +1 +1 1023.0 959.4
15 13.11 Ю 1 10 км 10/0
[Ac As]
+0.6 -2.1 82 -1 -1 1023.3 959.4 +2.8
18 13.11 Ю 2 4000 м дымка ясно -2.0 -3.0 93 -6 -6 1023.6 959.1
21 13.11 Ю 3 4000 м слабый ливневой снег 10/10 300 м
[Cb cap]
-0.4 -1.8 90 -5 -5 1021.9 957.8
00 14.11 Ю 3 4000 м дымка {ливн. осадки} 10/10 300 м
[Cb calv]
0.0 -0.6 96 -5 -5 1020.3 956.4
03 14.11 ЮЗ 2 4000 м слабый ливневой снег 10/10 300 м
[Cb cap]
+0.1 -0.5 96 -4 -4 1020.2 956.4 -2.1 3 1
06 14.11 З 2 1000 м дымка {ливн. осадки} 10/10 600 м
[Sc]
+0.9 +0.3 96 -3 -3 1021.5 957.8
09 14.11 СЗ 2 4000 м дымка {туман} 9/0
[Ac und]
+1.5 +1.0 96 -2 -1 1022.5 958.9
12 14.11 СЗ 1 4000 м дымка {туман} 10/0
[Ac As]
+1.4 +0.8 96 -1 -1 1023.4 959.7
15 14.11 СВ 1 4000 м дымка 10/0
[Ac As]
+1.0 +0.3 95 -1 -1 1025.2 961.3 +1.7 0.4
18 14.11 З 1 1000 м дымка 10/10 600 м
[Sc]
+0.7 +0.2 96 -1 -1 1025.8 961.8
21 14.11 ЮЗ 1 1000 м дымка 10/10 600 м
[Sc]
+0.3 -0.4 95 -2 -2 1026.0 961.9
00 15.11 Ю 1 1000 м дымка 10/10 600 м
[Sc]
+0.4 -0.2 96 -2 -2 1026.0 961.9
03 15.11 ЮЗ 2 4000 м дымка 10/10 600 м
[Sc]
+0.3 -0.3 96 -3 -3 1026.2 962.0 +0.2 0
06 15.11 Ю 3 4000 м дымка 10/10 600 м
[Sc]
+0.1 -0.9 93 -5 -5 1026.2 962.0 +0.1
09 15.11 Ю 3 4000 м в посл. час ливневой дождь 10/10 600 м
[Cb calv]
+0.3 -0.4 95 -5 -5 1025.8 961.7
12 15.11 Ю 3 500 м туман {ливн. осадки} ?/? +0.9 +0.4 96 -4 -4 1024.9 961.0
15 15.11 ЮЗ 2 1000 м дымка {морось, туман} 10/10 600 м
[Sc]
+1.2 +0.6 96 -2 -2 1024.3 960.5 +1.2 0.4
18 15.11 ЮЗ 3 1000 м дымка {морось, туман} 10/10 600 м
[Sc]
+1.4 +0.9 96 -3 -3 1023.7 960.0
21 15.11 ЮЗ 5 1000 м дымка 10/10 600 м
[Sc]
+1.6 +1.0 96 -4 -4 1022.5 958.9
00 16.11 ЮЗ 5 500 м туман ?/? +1.4 +0.8 96 -5 -5 1021.7 958.1
03 16.11 ЮЗ 5-10
{10}
500 м туман ?/? +1.1 +0.5 96 -5 -5 1020.4 956.8 +1.1 0
06 16.11 ЮЗ 4
{10}
4000 м слабый ливневой дождь со снегом 10/10 600 м
[Cb cap]
+0.6 0.0 96 -5 -5 1019.0 955.4 +0.3
09 16.11 ЮЗ 5
{11}
4000 м слабая морось {ливн. осадки} 10/10 600 м
[St]
+1.6 +1.1 96 -4 -4 1017.8 954.5
12 16.11 ЮЗ 3 4000 м дымка {ливн. осадки} 10/10 600 м
[Sc]
+1.9 +1.3 96 -3 -3 1018.0 954.7
15 16.11 СЗ 3 4000 м слабый ливневой дождь со снегом 10/10 600 м
[Cb cap]
0.0 -0.6 96 -5 -5 1019.6 955.8 +1.9 7
18 16.11 С 3 10 км в посл. час ливневой снег 10/10 600 м
[Cb calv]
-2.1 -4.3 85 -7 -7 1020.8 956.4
21 16.11 СЗ 3 10 км 10/10 600 м
[Sc]
-2.8 -5.4 82 -8 -8 1021.3 956.7
00 17.11 З 2 10 км 10/10 600 м
[Sc]
-3.3 -6.3 80 -7 -7 1021.3 956.6
03 17.11 З 2 10 км 10/10 600 м
[Sc]
-3.4 -5.9 83 -7 -7 1020.7 956.0 -3.5 0.3 <0.5
06 17.11 ЮЗ 3 10 км в посл. час ливневой снег 10/10 300 м
[Cb calv]
-3.2 -5.0 87 -8 -8 1020.0 955.4
09 17.11 ЮЗ 3 2000 м ливневой снег 10/10 300 м
[Cb cap]
-2.5 -3.7 91 -8 -8 1018.9 954.5
12 17.11 З 2 4000 м дымка {ливн. осадки} 10/10 600 м
[Sc]
-2.6 -3.3 95 -7 -7 1019.2 954.8
15 17.11 З 3 4000 м слабый ливневой снег 10/10 300 м
[Cb cap]
-2.4 -3.1 95 -8 -8 1019.5 955.1 -2.4 1

 

Местоположение метеостанции Зилаир (Башкирия, Россия): широта 52.22 долгота 57.40 высота над уровнем моря 521 м.

В архиве по умолчанию представлена погода в Зилаире за последнюю неделю. Архивные данные за месяц целиком и за предыдущие месяцы, начиная с января 2011 года, Вы можете получить, выбрав интересующий диапазон дат из раскрывающегося списка и нажав кнопку "Ввод!".

Внимание! Время в таблицах - всемирное. Для получения местного времени необходимо прибавить поправку, которая в Зилаире равна 5 ч.

Смотрите также архив погоды в соседних городах и на ближайших метеорологических станциях:

Погода в Акъяре (Башкирия, Россия) (66 км)
Погода в Троицком Т (Оренбургская область, Россия) (71 км)
Погода в Кувандыке (Оренбургская область, Россия) (83 км)
Погода в Энергетике (Оренбургская область, Россия) (110 км)
Погода в Беляевке (Оренбургская область, Россия) (112 км)
Погода в Кизильском (Челябинская область, Россия) (115 км)
Погода в Кумертау (Башкирия, Россия) (125 км)
Погода в Орске (Оренбургская область, Россия) (152 км)
Погода в Оренбурге (Оренбургская область, Россия) (169 км)
Погода в Магнитогорске (Челябинская область, Россия) (169 км)

Пояснения к столбцам:

Ветер - указаны скорость ветра в м/с - средняя за 10 мин, порывы в срок и между сроками (в фигурных скобках) и направление, откуда дует ветер: С - северный, СВ - северо-восточный, В - восточный, ЮВ - юго-восточный, Ю - южный, ЮЗ - юго-западный, З - западный, СЗ - северо-западный.
Видимость - горизонтальная дальность видимости в метрах или километрах. При видимости от 1 до 10 км при отсутствии осадков обычно наблюдается дымка, при ухудшении видимости до 1 км и менее - туман. В сухую погоду видимость может ухудшаться дымом, пылью или мглою.
Явления - указаны атмосферные явления, наблюдавшиеся в срок или в последний час перед сроком; фигурными скобками обозначены явления, наблюдавшиеся между сроками (за 1-3 часа до срока); квадратными скобками обозначены град или гололедные отложения с указанием их диаметра в мм.
Облачность - указаны через наклонную черту общая и нижняя облачность в баллах и высота нижней границы облаков в метрах; квадратными скобками обозначены формы облаков: Ci - перистые, Cs - перисто-слоистые, Cc - перисто-кучевые, Ac - высококучевые, As - высокослоистые, Sc - слоисто-кучевые, Ns - слоисто-дождевые, Cu - кучевые, Cb - кучево-дождевые. Подробнее классификацию облаков см. в Атласе облаков (PDF).
T - Температура воздуха - температура, измеренная на высоте 2 м над землей.
Td - Температура точки росы - температура, при понижении до которой содержащийся в воздухе водяной пар достигнет насыщения.
f - Относительная влажность воздуха - влажноcть воздуха, измеренная на высоте 2 м над землей.
Te - Эффективная температура - температура, которую ощущает одетый по сезону человек в тени. Характеристика душности погоды. При расчете учитывается влияние влажности воздуха и скорости ветра на теплоощущения человека.
Tes - Эффективная температура на солнце - температура, которую ощущает человек, с поправкой на солнечный нагрев. Характеристика знойности погоды. Зависит от высоты солнца над горизонтом, облачности и скорости ветра. Ночью, в пасмурную погоду, а также при ветре 12 м/с и более поправка равна нулю.
P - Атмосферное давление - приведенное к уровню моря атмосферное давление.
Po - Атмосферное давление - измеренное на уровне метеостанции атмосферное давление.
Tmin - Минимальная температура - минимум температуры воздуха на высоте 2 м над землей.
Tmax - Максимальная температура - максимум температуры воздуха на высоте 2 м над землей.
R - Количество осадков - Количество выпавших осадков за период времени, мм. При наведении курсора мыши на число - период времени, за который выпало указанное количество осадков.
R24 - Количество осадков - Количество выпавших осадков за 24 часа, мм.
S - Снежный покров - Высота снежного покрова, см. При наведении курсора мыши на число - состояние снежного покрова и степень покрытия местности в баллах.